Location: Angwan Shehu
(11.2514°N, 7.4613°E)
Time: 03:50:19
(UTC+00:00)

Vanguard 3 - Pass Details

Date: 07 August 2021
Orbit: 510 x 3260 km, 33.3° (Epoch: 16 September)

Event Time Altitude Azimuth Distance (km) Brightness Sun altitude
Rises 19:25:46 0° 306° (NW) 6,079 13.0 -22.3°
Reaches altitude 10° 19:29:45 10° 313° (NW) 5,383 12.3 -23.2°
Maximum altitude 19:46:17 45° 22° (NNE) 3,978 10.5 -26.9°
Enters shadow 19:58:01 25° 76° (ENE) 4,947 10.7 -29.5°
